Regional Weather Roundup
Issued by NWS Charleston, SC

Current Version | Previous Version | Text Only | Print | Product List | Glossary On
Versions: 1 2 3 4 5 6 7 8 9 10 11 12 13 14 15 16 17 18 19 20 21 22 23 24 25 26 27 28 29 30 31 32 33 34 35 36 37 38 39 40 41 42 43 44 45 46 47 48 49 50
000 ASUS42 KCHS 012212 RWRCHS REGIONAL WEATHER ROUNDUP NATIONAL WEATHER SERVICE CHARLESTON SC 600 PM EDT WED JUL 01 2015 NOTE: "FAIR" INDICATES FEW OR NO CLOUDS BELOW 12,000 FEET WITH NO SIGNIFICANT WEATHER AND/OR OBSTRUCTIONS TO VISIBILITY. NOT ALL STATIONS ARE QUALITY CONTROLLED BY THE NATIONAL WEATHER SERVICE. USE DATA WITH CAUTION...ESPECIALLY DEWPOINT OBSERVATIONS. SCZ027-030-031-034>040-042>050-012300- ...SOUTHEAST SOUTH CAROLINA... CITY SKY/WX TMP DP RH WIND PRES REMARKS N CHARLESTON PTSUNNY 86 70 58 W9 29.98S HX 90 WATERFRONT PAR N/A 87 72 60 SW6 29.94F HX 93 MOUNT PLEASANT FAIR 88 72 58 SW8 29.97S HX 94 JOHNS ISLAND FAIR 88 73 62 SW7 29.98S HX 96 PINOPOLIS NOT AVBL MONCKS CORNER FAIR 86 72 62 SW5 29.97S HX 92 SUMMERVILLE FAIR 86 73 66 SW5 29.98S HX 93 BEAUFORT MCAS PTSUNNY 87 71 58 W9 29.99S HX 93 BEAUFORT ARPT FAIR 88 72 58 W10G17 29.98S HX 94 HILTON HEAD IS MOSUNNY 88 70 55 SW13 30.00F HX 92 WALTERBORO PTCLDY 84 70 61 W9G16 29.99S ALLENDALE FAIR 86 70 58 VRB6 29.98F HX 90 ...SOUTHERN MIDLANDS AND PEE DEE... CITY SKY/WX TMP DP RH WIND PRES REMARKS GEORGETOWN NOT AVBL KINGSTREE NOT AVBL ORANGEBURG PTSUNNY 86 70 58 SW8 29.98S HX 90 BARNWELL FAIR 88 72 58 SW10 29.99F HX 94 AIKEN NOT AVBL MANNING FAIR 82 66 57 W5 29.97S HAZE COLUMBIA CLOUDY 87 68 52 SW10 29.95F HX 90 SUMTER PTSUNNY 86 70 60 SW8 29.94S HX 90 FLORENCE MOSUNNY 85 70 60 SW10 29.95S MYRTLE BEACH MOSUNNY 86 70 58 W7 29.97S HX 90 N MYRTLE BEACH MOSUNNY 85 69 58 W6 29.95S $$ GAZ063-065-086>088-099>101-113>116-118-119-134>141-150-012300- ...SOUTHEAST GEORGIA... CITY SKY/WX TMP DP RH WIND PRES REMARKS SAVANNAH ARPT PTSUNNY 89 69 51 W9 29.99F HX 93 HUNTER AAF MOSUNNY 90 73 57 W9G17 29.97S HX 98 FORT STEWART MOSUNNY 90 70 52 W12 29.98S HX 95 STATESBORO MOSUNNY 88 76 67 W3 30.00S HX 98 SYLVANIA PTCLDY 89 74 62 W7 30.01S HX 98 CLAXTON FAIR 88 73 62 W5 30.00S HX 96 ...CSRA...CENTRAL AND FAR SOUTHEAST GEORGIA... CITY SKY/WX TMP DP RH WIND PRES REMARKS THOMSON MOSUNNY 86 73 64 SW7 30.05R HX 93 AUGUSTA-BUSH PTSUNNY 86 69 56 SW13 29.98S HX 90 AUGUSTA-DANIEL PTSUNNY 87 68 52 SW7 29.99F HX 90 SWAINSBORO FAIR 88 73 62 W7 30.01F HX 96 VIDALIA MOSUNNY 90 70 51 W9 30.01S HX 95 EASTMAN FAIR 91 70 50 W8 30.03S HX 96 HAZLEHURST FAIR 91 70 50 W6 30.00F HX 96 ALMA SUNNY 90 67 46 W13 30.02S HX 93 WAYCROSS PTSUNNY 94 73 50 W12 30.02S HX 103 JESUP FAIR 91 72 52 W8G18 30.01S HX 98 BAXLEY FAIR 91 70 49 W7 30.01S HX 97 BRUNSWICK MOSUNNY 91 68 46 W9 30.02R HX 95 SAINT SIMONS MOSUNNY 91 68 46 W15G21 30.00F HX 95 $$ SCZ027-028-034-036>038-045-046-048>050-GAZ119-141-012300- ...LAKE AND SUPPLEMENTAL COASTAL OBSERVATIONS... STATION/POSITION TIME TEMP WIND PRES WAVE SWELL AIR SEA DIR/SP/G HT/PER HT/PER/DIR (UTC) (F) (DEG/KT/KT) (MB) (FT/S) (FT/S/D) UPR LAKE MARION NOT AVBL WINYAH BAY 2045 85 260/ 8 1014.0 LAKE MURRAY 2100 85 230/ 8/ 11 1013.9F ACE BASIN NERRS NOT AVBL FORT PULASKI 2100 89 84 240/ 7/ 11 1016.1F SAPELO ISLAND 2100 90 240/ 15 1016.0S $$ ANZ835-935-AMZ111-154-330-350-352-354-370-450-454-472-012300- ...C-MAN AND BUOY OBSERVATIONS... STATION/POSITION TIME TEMP WIND PRES WAVE SWELL AIR SEA DIR/SP/G HT/PER HT/PER/DIR (UTC) (F) (DEG/KT/KT) (MB) (FT/S) (FT/S/D) BUOY 41004 2150 81 82 220/ 17/ 19 1014.9F 5/ 6 2/ 8 BUOY 41008 2150 81 79 220/ 12/ 16 1016.1S 3/ 9 2/120/ 9 FOLLY BEACH CMAN 2100 85 230/ 9/ 12 1015.3F CAPERS NEARSHORE 2108 83 230/ 16/ 19 1015.2F FRIPP NEARSHORE 2100 86 270/ 12/ 14 1015.3F STATION/POSITION TIME TEMP WIND PRES WAVE SWELL AIR SEA DIR/SP/G HT/PER HT/PER/DIR (UTC) (F) (DEG/KT/KT) (MB) (FT/S) (FT/S/D) 5E ST. MARYS GA 2121 78 N/A 2/ 8 FRYING PAN BUOY 2150 80 80 220/ 16/ 17 1015.0S 5/ 6 2/140/ 8 BUOY 41025 2150 81 83 220/ 17/ 21 1013.3F 5/ 6 3/160/ 8 CAPE LOOKOUT NC 2100 81 210/ 11/ 15 1013.5F BUOY 41002 2150 82 80 230/ 17/ 19 1017.8F 6/ 7 2/150/11 BUOY 41010 2120 84 85 220/ 8/ 10 1019.8F ST AUGUSTINE FL 2200 83 74 240/ 7/ 10 1018.2F $$

USA.gov is the U.S. government's official web portal to all federal, state and local government web resources and services.